Location: Bottom School (historical)
(37.9078°N, 89.3593°W)
Time: 07:46:38
(UTC+00:00)

Tiangong - Visible Passes

Search period start: 04 December 2022 00:00
Search period end: 14 December 2022 00:00
Orbit: 386 x 394 km, 41.5° (Epoch: 03 December)

Date Brightness Start Highest point End Pass type
(mag) Time Alt. Az. Time Alt. Az. Time Alt. Az.
04 Dec 1.2 01:07:51 10° WNW 01:08:09 12° WNW 01:08:09 12° WNW visible
05 Dec -1.5 00:09:45 10° WNW 00:12:48 41° N 00:12:53 41° N visible
05 Dec -1.5 23:11:35 10° W 23:14:39 44° N 23:17:37 11° ENE visible
06 Dec 0.4 00:48:46 10° WNW 00:49:56 20° WNW 00:49:56 20° WNW visible
06 Dec -1.6 23:50:39 10° WNW 23:53:44 43° N 23:54:41 32° NE visible
08 Dec -1.1 00:29:29 10° WNW 00:31:47 43° WNW 00:31:47 43° WNW visible
08 Dec -1.9 23:31:21 10° WNW 23:34:28 54° NNE 23:36:39 18° E visible
09 Dec 1.1 01:08:22 10° W 01:08:58 14° W 01:08:58 14° W visible
10 Dec -1.9 00:10:05 10° WNW 00:13:15 66° SSW 00:13:56 47° SE visible
10 Dec -2.2 23:11:51 10° WNW 23:15:01 80° NNE 23:18:13 10° ESE visible
11 Dec 0.4 00:49:15 10° W 00:51:23 20° SW 00:51:23 20° SW visible
11 Dec -0.6 23:50:40 10° W 23:53:36 35° SSW 23:56:32 10° SE visible
13 Dec 1.2 00:31:04 10° SW 00:31:51 11° SW 00:32:38 10° SSW visible
13 Dec 0.7 23:31:24 10° W 23:33:43 19° SW 23:36:03 10° SSE visible
